Regional Weather Roundup
Issued by NWS

Home | Current Version | Previous Version | Graphics & Text | Print | Product List | Glossary On
Versions: 1 2 3 4 5 6 7 8 9 10 11 12 13 14 15 16 17 18 19 20 21 22 23 24 25 26 27 28 29 30 31 32 33 34 35 36 37 38 39 40 41 42 43 44 45 46 47 48 49 50
870
ASUS45 KSLC 160810
RWRUT

UTAH REGIONAL WEATHER ROUNDUP
NATIONAL WEATHER SERVICE SALT LAKE CITY UT
200 AM MDT WED AUG 16 2017

UTZ001>011-023>025-160900-

NORTHERN UTAH

CITY           SKY/WX    TMP DP  RH WIND       PRES   REMARKS
BRIGHAM CITY   CLEAR     62  47  57 CALM      30.00S
HILL AFB       CLEAR     60  32  34 E15       30.02S
LOGAN          CLEAR     59  48  67 CALM      30.01S
OGDEN          CLEAR     62  34  35 S8        30.00S
SALT LAKE CITY CLEAR     65  37  35 SE7       29.99R
TOOELE VALLEY  CLEAR     54  32  43 S8        30.01S
WENDOVER       CLEAR     67  34  29 CALM      29.99S
HEBER CITY     CLEAR     50  41  71 NE3       30.09R
WEST JORDAN    CLEAR     56  38  51 SW6       30.02S

$$

UTZ011>015-024>027-160900-

CENTRAL/NORTHEAST UTAH

CITY           SKY/WX    TMP DP  RH WIND       PRES   REMARKS
PROVO AIRPORT  CLEAR     60  47  61 CALM      30.02S
MOAB/CANYONLAN CLEAR     69  43  38 E10       29.99R
DELTA          CLEAR     61  41  48 N5        30.02S
PRICE          CLEAR     57  44  62 SE5       30.08S
RICHFIELD      CLEAR     54  45  71 CALM      30.09R
ROOSEVELT      CLEAR     52  46  82 CALM      30.11S
VERNAL         CLOUDY    52  50  93 CALM      30.10R

$$

UTZ013>016-019>022-027-160900-

SOUTHERN UTAH

CITY           SKY/WX    TMP DP  RH WIND       PRES   REMARKS
BRYCE CANYON   CLEAR     45  36  70 W6        30.21S
CEDAR CITY     CLEAR     60  34  37 S6        30.07R
MILFORD        CLEAR     60  39  45 W7        30.03R
ST GEORGE      SUNNY     72  36  26 E6        29.90R
HANKSVILLE     CLEAR     63  28  27 CALM      30.00R
KANAB          CLEAR     52  34  50 NE3       30.09R
BLANDING       CLEAR     55  36  50 N7        30.16S

$$

REGIONAL REPORTS     COLORADO/ARIZONA

CITY           SKY/WX    TMP DP  RH WIND       PRES   REMARKS
CRAIG, CO      CLOUDY    46  43  89 CALM      30.16R
GRAND JUNCTION CLOUDY    62  44  51 CALM      30.03S
RIFLE, CO      CLOUDY    61  47  59 CALM      30.10R
MONTROSE, CO   CLOUDY    58  36  43 SE7       30.11S
CORTEZ, CO     CLEAR     47  36  65 NE5       30.11S
COLORADO CITY    N/A     52  43  71 CALM      30.06S
PAGE, AZ       CLEAR     72  26  18 CALM      29.97S
GRAND CANYON   CLEAR     41  28  60 CALM      30.18S
KINGMAN, AZ    CLEAR     67  34  29 SE7       29.93S
FLAGSTAFF, AZ  CLEAR     43  37  79 CALM      30.20F

$$

REGIONAL REPORTS    NEVADA/IDAHO/WYOMING

CITY           SKY/WX    TMP DP  RH WIND       PRES   REMARKS
LAS VEGAS, NV  CLEAR     85  38  18 SW5       29.81R
ELY, NY        PTCLDY    53  35  50 S9        30.10S
ELKO, NV       PTCLDY    62  33  33 N3        30.02S
POCATELLO, ID  CLEAR     51  41  68 SW3       30.01S
BURLEY, ID     PTCLDY    54  45  71 SE5       29.98R
FORT BRIDGER,    N/A     49  44  82 SW6       30.20S
EVANSTON, WY   CLEAR     50  37  61 S5        30.18R
ROCK SPRINGS,  CLEAR     52  44  74 S6        30.15R
KEMMERER, WY     N/A     48  41  76 SW5       30.19R

$$




USA.gov is the U.S. government's official web portal to all federal, state and local government web resources and services.